Regional Weather Roundup
Issued by NWS

Home | Current Version | Previous Version | Text Only | Print | Product List | Glossary On
Versions: 1 2 3 4 5 6 7 8 9 10 11 12 13 14 15 16 17 18 19 20 21 22 23 24 25 26 27 28 29 30 31 32 33 34 35 36 37 38 39 40 41 42 43 44 45 46 47 48 49 50
000
ASUS46 KLOX 270812
RWRCA

SOUTHERN CALIFORNIA WEATHER ROUNDUP
NATIONAL WEATHER SERVICE OXNARD CALIFORNIA
1200 AM PST SAT DEC 27 2014

NOTE: "FAIR" INDICATES FEW OR NO CLOUDS BELOW 12,000 FEET WITH NO
SIGNIFICANT WEATHER AND/OR OBSTRUCTIONS TO VISIBILITY.

  -  STATIONS PRECEEDED BY AN ASTERISK (*) ARE NOT NWS OR FAA
     STATIONS AND ARE NOT SUBJECT TO NWS AND FAA QUALITY CONTROL.

CAZ041-042-087-270900-
LA AND ORANGE COUNTY COASTAL AREAS


CITY           SKY/WX    TMP DP  RH WIND       PRES   REMARKS
L.A. DOWNTOWN  CLEAR     46  26  45 CALM      30.21R
L.A. AIRPORT   CLEAR     51  19  28 VRB3      30.22R
LONG BEACH     CLEAR     51  18  27 E6        30.21R

CITY           SKY/WX    TMP DP  RH WIND       PRES   REMARKS
AVALON           N/A     57 N/A N/A MISG        N/A
FULLERTON      CLEAR     53  14  21 E7        30.20R
*GETTY CENTER    N/A     50  14  23 VRB15       N/A
HAWTHORNE      CLEAR     49  27  42 CALM      30.22R
*LEO CARRILLO    N/A     53  12  19 NE10G28     N/A
*LOS ALAMITOS  FAIR      53  18  25 NE10      30.21R
*REDONDO BEACH   N/A     42  28  56 CALM      30.20S
SANTA ANA      CLEAR     57  12  17 NE9       30.20R
STA MONICA APT CLEAR     50  16  25 N3        30.22R
*UCLA            N/A     50  16  25 CALM      30.18S

$$

CAZ547-548-048-270900-
LA COUNTY VALLEYS AND INLAND EMPIRE


CITY           SKY/WX    TMP DP  RH WIND       PRES   REMARKS
BURBANK        CLEAR     46  18  32 CALM      30.20S
VAN NUYS       CLEAR     50  15  24 NW8       30.21S

CITY           SKY/WX    TMP DP  RH WIND       PRES   REMARKS
CORONA AIRPORT SUNNY     48  15  27 CALM      30.23R
*CHATSWORTH      N/A     51  17  26 N8        30.23R
CHINO          CLEAR     47  18  31 E8        30.23R
*CLAREMONT       N/A     37  13  37 CALM        N/A
MARCH AFB      CLEAR     45  15  30 NW6       30.21R
*NORTHRIDGE      N/A     48  12  23 NW2         N/A
ONTARIO        CLEAR     52  11  19 NE18G32   30.19R
*PASADENA        N/A     46  21  36 E10         N/A
RIVERSIDE      CLEAR     49  13  23 NE12      30.21S
SAN BERNARDINO NOT AVBL
*SAN RAFAEL HI   N/A     47   6  18 N8          N/A
*SAUGUS          N/A     44  11  26 N7          N/A
*WHITEMAN AP   NOT AVBL
*WOODLAND HILL   N/A     46  16  29 W2          N/A

$$

CAZ054-055-270900-
LA AND SAN BERNARDINO COUNTY MOUNTAINS


CITY           SKY/WX    TMP DP  RH WIND       PRES   REMARKS
*ACTON           N/A     43  11  26 N10G25      N/A
*BIG BEAR AIRP SUNNY     21   7  53 N10G16    30.14S WCI  10
*BIG PINES       N/A     19   6  57 CALM        N/A
MT WILSON NWS    N/A     28   9  43 NW6         N/A  WCI  22
SANDBERG       CLEAR     32  11  41 E13       30.20F WCI  22

$$

CAZ028-029-059-060-099-270900-
ANTELOPE VALLEY AND SURROUNDING AREAS


CITY           SKY/WX    TMP DP  RH WIND       PRES   REMARKS
LANCASTER      CLEAR     27  20  75 W3        30.27S
PALMDALE       CLEAR     30  18  60 E7        30.26R WCI  23

CITY           SKY/WX    TMP DP  RH WIND       PRES   REMARKS
29 PALMS       CLEAR     40  11  30 N7        30.30R
BARSTOW/DAGGET CLEAR     37  14  38 CALM      30.27R
BISHOP         CLEAR     23   8  52 N9        30.28R WCI  13
CHINA LAKE     CLEAR     38  13  35 CALM      30.25R
EDWARDS AFB    CLEAR     33  19  58 N7        30.26R WCI  26
MOJAVE         FAIR      30  16  55 NW5       30.26S WCI  25
NEEDLES        CLEAR     47  15  27 N14       30.21S
VICTORVILLE      N/A     30  16  55 CALM      30.26R

$$

CAZ039-040-270900-
VENTURA AND SANTA BARBARA COUNTY COAST


CITY           SKY/WX    TMP DP  RH WIND       PRES   REMARKS
CAMARILLO      CLEAR     52  17  25 NE18      30.21S
NWS OXNARD       N/A     51  18  26 CALM      30.20F
OXNARD AIRPORT CLEAR     51  19  28 E12       30.21S
*POINT MUGU    CLEAR     53  22  29 NE13      30.22S
SBA APT/GOLETA CLEAR     42  32  67 CALM      30.21S
*SANTA BARBARA   N/A     45  33  62 CALM      30.29S
*VENTURA         N/A     47  23  38 CALM      30.26S

$$

CAZ044-045-270900-
VENTURA COUNTY VALLEYS


CITY           SKY/WX    TMP DP  RH WIND       PRES   REMARKS
*SIMI VALLEY     N/A     48  18  30 NE3       30.22
*OJAI            N/A     32  28  86 CALM      30.21R
*FILLMORE        N/A     52  22  31 NE3       30.13S

$$

CAZ053-270900-
VENTURA COUNTY MOUNTAINS


CITY           SKY/WX    TMP DP  RH WIND       PRES   REMARKS
*LOCKWOOD VLY    N/A     18  10  73 MISG        N/A
*ROSE VALLEY     N/A     23  23 100 MISG        N/A

$$

CAZ034-035-036-270900-
CENTRAL COAST AND SANTA YNEZ VALLEY


CITY           SKY/WX    TMP DP  RH WIND       PRES   REMARKS
SAN LUIS OBISP CLEAR     42  30  62 W3        30.23R
SANTA MARIA    CLEAR     39  30  70 CALM      30.23R

CITY           SKY/WX    TMP DP  RH WIND       PRES   REMARKS
*CAL POLY SLO    N/A     48  34  57 NE12        N/A
*LOMPOC        CLEAR     37  28  70 CALM      30.22R
*PISMO BEACH     N/A     45  32  61 NE2       30.23S
*SANTA YNEZ    FAIR      41  32  70 E9        30.21S

$$

CAZ037-038-051-270900-
SAN LUIS OBISPO COUNTY INTERIOR AND CUYAMA VALLEY


CITY           SKY/WX    TMP DP  RH WIND       PRES   REMARKS
*CUYAMA          N/A     32  28  85 CALM      30.25F
PASO ROBLES    CLEAR     36  30  79 N5        30.25S WCI  32

$$

CAZ032-033-061-270900-
SOUTHERN DESERTS


CITY           SKY/WX    TMP DP  RH WIND       PRES   REMARKS
BLYTHE         CLEAR     43  15  32 N10       30.19S
IMPERIAL       CLEAR     41  22  46 NW7       30.21S
PALM SPRINGS   CLEAR     54  11  18 NW6       30.26R
THERMAL        CLEAR     43  14  31 N8        30.22S

$$

ELSEWHERE ACROSS THE WESTERN UNITED STATES AND MEXICO


CITY           SKY/WX    TMP DP  RH WIND       PRES   REMARKS
DENVER, CO     PTCLDY     8   5  87 SW8       30.08S WCI  -4
GRAND CANYON,  CLEAR      9   6  88 NE7       30.07R WCI  -2
HONOLULU, HI   PTCLDY    72  63  73 N10       29.85S
KAHULUI, MAUI  CLEAR     70  63  78 CALM      29.85R
LAKE TAHOE, CA PTCLDY    15   9  76 S3        30.25R
LAS VEGAS, NV  CLEAR     42   7  23 NW16G25   30.22R WCI  34
MAMMOTH LAKES, FAIR      10   1  67 N3        30.22R
MEXICO CITY, M PTCLDY    57  46  67 W3        30.31F
PHOENIX, AZ    CLEAR     41  25  53 E6        30.10S
PORTLAND, OR   CLOUDY    45  44  97 SE3       30.35F
RENO, NV       PTCLDY    25  16  68 W5        30.32R WCI  19
SALT LAKE CITY PTCLDY    20  16  84 S3        30.25R
SAN DIEGO, CA  CLEAR     51  20  29 NE3       30.20S
SAN FRANCISCO, CLEAR     45  35  68 NW3       30.27R
SAN JOSE, CA   CLEAR     40  31  70 CALM      30.27R
SEATTLE, WA    CLOUDY    41  35  79 SE5       30.32F
TIJUANA, MEX   CLEAR     52  10  19 E9        30.20

$$

STATION/POSITION TIME  TEMP    WIND        PRES    VSBY  WAVE
                       AIR SEA DIR/SP/G                  HT/PER
                 (UTC) (F)     (DEG/KT/KT) (MB)    (MI)  (FT/S)
POINT ARGUELLO B NOT AVBL
WEST SANTA BARBA 0800   58 61  120/  6/  8 1022.3R         8/11
POINT CONCEPTION NOT AVBL
EAST SANTA BARBA NOT AVBL
SANTA MONICA BAY 0800   59 63   70/ 12/ 16 1022.6F         3/ 4


USA.gov is the U.S. government's official web portal to all federal, state and local government web resources and services.